Weather Roundup
Issued by NWS

Home | Current Version | Previous Version | Graphics & Text | Print | Product List | Glossary Off
Versions: 1 2 3 4 5 6 7 8 9 10 11 12 13 14 15 16 17 18 19 20 21 22 23 24 25 26 27 28 29 30 31 32 33 34 35 36 37 38 39 40 41 42 43 44 45 46 47 48 49 50

610
NZUS93 KARX 201459
HRRWXR

CURRENT HOURLY OBSERVATIONS ACROSS
MUCH OF THE UPPER MISSISSIPPI VALLEY
NATIONAL WEATHER SERVICE LA CROSSE WI
1000 AM CDT FRI APR 20 2018


...SOUTHEAST MINNESOTA...


CITY           SKY/WX    TMP DP  RH WIND       PRES   REMARKS
ROCHESTER      FAIR      39  31  72 CALM      30.51S
ROCHESTER/MAYO FAIR      42  27  56 CALM      30.51F
WINONA         FAIR      39  28  65 CALM      30.51S
AUSTIN         FAIR      36  25  64 E5        30.50S WCI  32
ALBERT LEA     FAIR      36  21  55 E7        30.49S WCI  30
DODGE CENTER   FAIR      37  28  70 CALM      30.50F
PRESTON        FAIR      39  23  52 CALM      30.51F
OWATONNA       FAIR      43  28  56 E3        30.49F
FARIBAULT      NOT AVBL
$$

...ELSEWHERE IN MINNESOTA...


CITY           SKY/WX    TMP DP  RH WIND       PRES   REMARKS
MINNEAPOLIS    PTSUNNY   41  26  55 CALM      30.51S
INTNL FALLS    FAIR      47  26  44 NW3       30.42S
DULUTH         FAIR      49  30  48 W5        30.44S
RED WING       FAIR      39  25  56 CALM      30.51S
REDWOOD FALLS  MOSUNNY   34  27  75 SE9       30.49R WCI  27
MANKATO        FAIR      37  27  67 SE6       30.51R WCI  32
WORTHINGTON    PTSUNNY   36  25  64 S10       30.45S WCI  28
FAIRMONT       CLOUDY    33  22  63 S5        30.50S WCI  29
$$

...SOUTHWEST WISCONSIN...


CITY           SKY/WX    TMP DP  RH WIND       PRES   REMARKS
LA CROSSE      FAIR      39  28  64 CALM      30.53S
PRAIRIE DU CHI FAIR      38  28  67 CALM      30.54S
BOSCOBEL       FAIR      44  29  55 CALM      30.53F
LONE ROCK      NOT AVBL
PLATTEVILLE    FAIR      45  32  59 CALM      30.52S
FORT MC COY    FAIR      37  26  64 CALM      30.53S
CAMP DOUGLAS   MOSUNNY   46  23  39 NW5       30.51S
MAUSTON-NEW LI FAIR      40  24  53 NW5       30.52R
VIROQUA        FAIR      42  25  50 NE3       30.51S
WIS DELLS      FAIR      38  24  56 S3        30.51S
$$

...ELSEWHERE IN WISCONSIN...


CITY           SKY/WX    TMP DP  RH WIND       PRES   REMARKS
MILWAUKEE      FAIR      48  23  37 CALM      30.51R
MADISON        FAIR      46  25  43 CALM      30.52R
GREEN BAY      FAIR      37  25  61 S6        30.50S WCI  32
EAU CLAIRE     NOT AVBL
BLACK RVR FLS  FAIR      41  22  46 CALM      30.52F
MEDFORD        FAIR      39  22  50 CALM      30.48S
WAUSAU         FAIR      42  20  41 W3        30.47S
WIS RAPIDS     FAIR      42  20  41 CALM      30.52R
MARSHFIELD     FAIR      41  21  44 W5        30.49R
RICE LAKE      FAIR      37  26  64 CALM      30.51S
$$

...NORTHEAST IOWA...


CITY           SKY/WX    TMP DP  RH WIND       PRES   REMARKS
WATERLOO       FAIR      43  29  57 VRB3      30.51F
DUBUQUE        FAIR      46  29  51 NE5       30.52R
DECORAH        FAIR      37  27  65 CALM      30.50S
MASON CITY     MOSUNNY   32  25  75 CALM      30.52S
CHARLES CITY   FAIR      37  27  65 E5        30.51F WCI  34
OELWEIN        FAIR      45  28  53 CALM      30.52S
$$

...ELSEWHERE IN IOWA...


CITY           SKY/WX    TMP DP  RH WIND       PRES   REMARKS
DES MOINES     CLOUDY    47  30  51 SE8       30.49S
IOWA CITY      FAIR      48  31  51 S7        30.53F
FORT DODGE     CLOUDY    41  33  73 E7        30.48F
MARSHALLTOWN   MOSUNNY   45  32  60 S8        30.50S
CEDAR RAPIDS   FAIR      50  27  40 S8        30.50F
$$

...NORTHERN ILLINOIS...


CITY           SKY/WX    TMP DP  RH WIND       PRES   REMARKS
CHICAGO-OHARE  FAIR      49  25  39 SE3       30.51R
CHICAGO-MIDWAY FAIR      50  24  36 SE3       30.53R
MOLINE         FAIR      51  31  46 VRB6      30.52F
ROCKFORD       FAIR      49  25  39 NW6       30.55R
PEORIA         FAIR      50  25  37 CALM      30.54R
$$

NOTE: "FAIR" INDICATES FEW OR NO CLOUDS BELOW 12,000 FEET WITH NO
SIGNIFICANT WEATHER AND/OR OBSTRUCTIONS TO VISIBILITY. WIND
SPEEDS ARE IN MILES-PER-HOUR.




USA.gov is the U.S. government's official web portal to all federal, state and local government web resources and services.